Location: Gleizolles
(44.4833°N, 6.7667°E)
Time: 13:23:07
(UTC+00:00)

deb Explorer IX - Pass Details

Date: 30 June 2024
Orbit: 510 x 878 km, 38.7° (Epoch: 21 July)

Event Time Altitude Azimuth Distance (km) Brightness Sun altitude
Rises 05:25:15 0° 241° (WSW) 2,605 ? 14.0°
Reaches altitude 10° 05:27:35 10° 230° (SW) 1,734 ? 14.4°
Maximum altitude 05:31:05 31° 167° (SSE) 950 ? 15.0°
Drops below altitude 10° 05:34:47 10° 105° (ESE) 1,837 ? 15.7°
Sets 05:37:19 0° 95° (E) 2,790 ? 16.1°
